This is the latest recevied weather packets stored in our database for station/object N4MGC. If no packets are shown the sender has not sent any weather packets the latest 10 day(s).
| Time | Temp. | Humidity | Pressure | Rain* | Wind** | Luminosity | Snow |
|---|---|---|---|---|---|---|---|
| 1778008989 | 26.11° C | 58% | 1012.4 hPa | 0 mm | - | 747 W/m² | - |
| 1778008686 | 25.56° C | 59% | 1012.7 hPa | 0 mm | - | 688 W/m² | - |
| 1778008385 | 25.56° C | 58% | 1012.6 hPa | 0 mm | - | 665 W/m² | - |
| 1778008081 | 25.56° C | 59% | 1012.9 hPa | 0 mm | - | 521 W/m² | - |
| 1778007776 | 25° C | 60% | 1012.8 hPa | 0 mm | - | 674 W/m² | - |
| 1778007472 | 25° C | 57% | 1013 hPa | 0 mm | - | 487 W/m² | - |
| 1778007169 | 24.44° C | 57% | 1013.2 hPa | 0 mm | - | 811 W/m² | - |
| 1778006865 | 25° C | 59% | 1013.3 hPa | 0 mm | - | 398 W/m² | - |
| 1778006563 | 25.56° C | 60% | 1013.1 hPa | 0 mm | - | 294 W/m² | - |
| 1778006259 | 25.56° C | 57% | 1013.3 hPa | 0 mm | - | 762 W/m² | - |
| 1778005957 | 25.56° C | 57% | 1013.4 hPa | 0 mm | - | 270 W/m² | - |
| 1778005653 | 25.56° C | 58% | 1013.4 hPa | 0 mm | - | 800 W/m² | - |
| 1778005350 | 23.89° C | 61% | 1013.8 hPa | 0 mm | - | 845 W/m² | - |
| 1778005046 | 24.44° C | 60% | 1013.7 hPa | 0 mm | - | 764 W/m² | - |
| 1778004744 | 25° C | 61% | 1013.9 hPa | 0 mm | - | 642 W/m² | - |
| 1778004440 | 23.89° C | 59% | 1013.7 hPa | 0 mm | - | 239 W/m² | - |
| 1778004137 | 24.44° C | 60% | 1013.8 hPa | 0 mm | - | 482 W/m² | - |
| 1778003833 | 23.89° C | 62% | 1013.9 hPa | 0 mm | - | 312 W/m² | - |
| 1778003529 | 24.44° C | 59% | 1013.8 hPa | 0 mm | - | 351 W/m² | - |
| 1778003226 | 23.89° C | 61% | 1013.9 hPa | 0 mm | - | 438 W/m² | - |
| 1778002923 | 23.33° C | 62% | 1014 hPa | 0 mm | - | 513 W/m² | - |
| 1778002619 | 23.89° C | 62% | 1013.7 hPa | 0 mm | - | 311 W/m² | - |
| 1778002316 | 23.33° C | 62% | 1014 hPa | 0 mm | - | 326 W/m² | - |
| 1778002013 | 23.89° C | 64% | 1014 hPa | 0 mm | - | 488 W/m² | - |
| 1778001710 | 23.33° C | 61% | 1014 hPa | 0 mm | - | 430 W/m² | - |
* Rain latest hour (hover to see other rain measurements)
** Current wind speed in m/s (hover to see current wind gust speed)